Date String (YYYY-MM-DD hh:mm:ss) UTC,Instrument flags,Ambient pressure (hPa),Sample flow (lpm),Bypass flow (lpm),Sample temperature (°C),Ambient temperature (°C),ASC tube jacket temperature (°C),LED temperature (°C),Box temperature (°C),Sample RH (%),Span deviation,Mass concentration (μg/m³),Mass concentration (μg/m³),Mass concentration (μg/m³)
DateTimeUTC,F1_M11,P_M11,Q1_M11,Q2_M11,T1_M11,T2_M11,T3_M11,T4_M11,T5_M11,U1_M11,ZSPAN_M11,X2_M11,X0_M11,X1_M11
2022-01-09 07:00:00,,0831.9,5.01,0.00,22.3,23.0,00.0,31.2,24.4,13.0,0000.0,0001.61,0002.46,0001.30
2022-01-09 07:01:00,,0831.8,5.01,0.00,22.4,22.9,00.0,31.3,24.4,12.9,0000.0,0001.55,0002.33,0001.27
2022-01-09 07:02:00,,0831.7,5.00,0.00,22.5,22.7,00.0,31.3,24.4,12.9,0000.0,0001.55,0002.52,0001.26
2022-01-09 07:03:00,,0831.7,4.99,0.00,22.5,22.6,00.0,31.3,24.4,12.9,0000.0,0001.59,0002.76,0001.26
2022-01-09 07:04:00,,0831.7,5.01,0.00,22.5,22.4,00.0,31.3,24.3,12.9,0000.0,0001.61,0002.86,0001.26
2022-01-09 07:05:00,,0831.7,4.99,0.00,22.4,22.3,00.0,31.3,24.3,12.9,0000.0,0001.60,0002.87,0001.24
2022-01-09 07:06:00,,0831.7,5.01,0.00,22.4,22.1,00.0,31.3,24.2,12.9,0000.0,0001.58,0002.84,0001.22
2022-01-09 07:07:00,,0831.8,5.00,0.00,22.4,22.0,00.0,31.3,24.2,12.9,0000.0,0001.57,0002.78,0001.23
2022-01-09 07:08:00,,0831.7,5.02,0.00,22.4,22.0,00.0,31.3,24.2,12.9,0000.0,0001.57,0002.75,0001.26
2022-01-09 07:09:00,,0831.7,4.99,0.00,22.4,21.9,00.0,31.3,24.2,13.0,0000.0,0001.58,0003.72,0001.30
2022-01-09 07:10:00,,0831.7,5.00,0.00,22.4,21.9,00.0,31.3,24.2,13.0,0000.0,0001.61,0004.09,0001.33
2022-01-09 07:11:00,,0831.7,5.01,0.00,22.4,21.8,00.0,31.3,24.1,13.1,0000.0,0001.63,0004.19,0001.36
2022-01-09 07:12:00,,0831.7,5.00,0.00,22.3,21.7,00.0,31.3,24.1,13.1,0000.0,0001.70,0004.36,0001.41
2022-01-09 07:13:00,,0831.7,5.00,0.00,22.3,21.7,00.0,31.3,24.1,13.2,0000.0,0001.74,0004.85,0001.45
2022-01-09 07:14:00,,0831.7,4.99,0.00,22.3,21.7,00.0,31.3,24.0,13.2,0000.0,0001.76,0004.73,0001.49
2022-01-09 07:15:00,,0831.7,5.01,0.00,22.3,21.6,00.0,31.3,24.0,13.2,0000.0,0001.75,0004.66,0001.51
2022-01-09 07:16:00,,0831.7,4.98,0.00,22.3,21.6,00.0,31.3,24.0,13.2,0000.0,0001.79,0004.66,0001.54
2022-01-09 07:17:00,,0831.7,5.00,0.00,22.2,21.5,00.0,31.3,24.0,13.2,0000.0,0001.84,0004.70,0001.57
2022-01-09 07:18:00,,0831.7,5.01,0.00,22.2,21.5,00.0,31.3,24.0,13.2,0000.0,0001.91,0004.92,0001.58
2022-01-09 07:19:00,,0831.7,5.01,0.00,22.2,21.4,00.0,31.3,23.9,13.3,0000.0,0001.98,0005.11,0001.58
2022-01-09 07:20:00,,0831.7,4.98,0.00,22.2,21.4,00.0,31.3,23.9,13.3,0000.0,0002.00,0004.40,0001.58
2022-01-09 07:21:00,,0831.7,5.02,0.00,22.2,21.4,00.0,31.3,23.9,13.4,0000.0,0002.00,0004.00,0001.59
2022-01-09 07:22:00,,0831.7,4.99,0.00,22.1,21.3,00.0,31.2,23.8,13.4,0000.0,0001.98,0003.90,0001.59
2022-01-09 07:23:00,,0831.8,5.00,0.00,22.1,21.2,00.0,31.2,23.8,13.4,0000.0,0001.98,0003.84,0001.59
2022-01-09 07:24:00,,0831.7,4.99,0.00,22.1,21.2,00.0,31.2,23.8,13.4,0000.0,0001.99,0003.32,0001.59
2022-01-09 07:25:00,,0831.7,5.00,0.00,22.1,21.2,00.0,31.2,23.8,13.5,0000.0,0001.98,0003.40,0001.58
2022-01-09 07:26:00,,0831.7,5.00,0.00,22.1,21.2,00.0,31.2,23.8,13.5,0000.0,0001.98,0003.42,0001.59
2022-01-09 07:27:00,,0831.7,5.01,0.00,22.0,21.2,00.0,31.2,23.8,13.5,0000.0,0002.00,0003.43,0001.61
2022-01-09 07:28:00,,0831.8,4.99,0.00,22.1,21.4,00.0,31.1,23.8,13.4,0000.0,0002.00,0003.42,0001.61
2022-01-09 07:29:00,,0831.9,5.01,0.00,22.1,22.0,00.0,31.2,24.0,13.3,0000.0,0001.96,0003.39,0001.62
2022-01-09 07:30:00,,0832.0,5.01,0.00,22.3,22.7,00.0,31.2,24.2,13.0,0000.0,0001.90,0003.64,0001.63
2022-01-09 07:31:00,,0832.0,4.99,0.00,22.4,22.8,00.0,31.3,24.3,12.9,0000.0,0001.86,0003.52,0001.61
2022-01-09 07:32:00,,0832.0,5.00,0.00,22.4,22.7,00.0,31.3,24.3,12.8,0000.0,0001.84,0003.37,0001.59
2022-01-09 07:33:00,,0832.0,4.99,0.00,22.4,22.5,00.0,31.3,24.3,12.8,0000.0,0001.85,0003.43,0001.58
2022-01-09 07:34:00,,0831.9,5.01,0.00,22.4,22.3,00.0,31.3,24.2,12.9,0000.0,0001.83,0003.57,0001.56
2022-01-09 07:35:00,,0832.0,4.99,0.00,22.4,22.1,00.0,31.3,24.1,12.9,0000.0,0001.80,0003.56,0001.54
2022-01-09 07:36:00,,0832.0,5.02,0.00,22.4,22.0,00.0,31.3,24.1,12.9,0000.0,0001.78,0003.28,0001.52
2022-01-09 07:37:00,,0832.0,4.99,0.00,22.3,21.9,00.0,31.3,24.1,12.9,0000.0,0001.75,0003.57,0001.50
2022-01-09 07:38:00,,0832.0,5.01,0.00,22.3,21.8,00.0,31.3,24.1,12.9,0000.0,0001.72,0003.61,0001.48
2022-01-09 07:39:00,,0831.9,4.99,0.00,22.3,21.7,00.0,31.3,24.1,12.9,0000.0,0001.73,0003.71,0001.48
2022-01-09 07:40:00,,0832.0,4.99,0.00,22.3,21.7,00.0,31.3,24.0,13.0,0000.0,0001.75,0003.65,0001.48
2022-01-09 07:41:00,,0832.0,5.00,0.00,22.3,21.7,00.0,31.3,24.0,13.0,0000.0,0001.81,0004.56,0001.49
2022-01-09 07:42:00,,0832.1,5.01,0.00,22.3,21.6,00.0,31.3,24.0,13.1,0000.0,0001.89,0004.96,0001.50
2022-01-09 07:43:00,,0832.1,4.98,0.00,22.3,21.6,00.0,31.3,24.0,13.1,0000.0,0001.95,0005.66,0001.50
2022-01-09 07:44:00,,0832.1,5.01,0.00,22.2,21.6,00.0,31.3,23.9,13.1,0000.0,0001.97,0006.49,0001.51
2022-01-09 07:45:00,,0832.1,4.99,0.00,22.2,21.5,00.0,31.3,23.9,13.2,0000.0,0001.97,0007.01,0001.52
2022-01-09 07:46:00,,0832.1,5.00,0.00,22.2,21.5,00.0,31.3,23.9,13.2,0000.0,0001.95,0007.54,0001.53
2022-01-09 07:47:00,,0832.1,5.02,0.00,22.2,21.5,00.0,31.3,23.9,13.2,0000.0,0001.94,0007.65,0001.52
2022-01-09 07:48:00,,0832.1,4.99,0.00,22.2,21.4,00.0,31.3,23.8,13.2,0000.0,0001.99,0007.82,0001.53
2022-01-09 07:49:00,,0832.1,5.00,0.00,22.1,21.4,00.0,31.2,23.8,13.2,0000.0,0002.00,0008.11,0001.52
2022-01-09 07:50:00,,0832.1,5.01,0.00,22.1,21.4,00.0,31.2,23.8,13.2,0000.0,0001.98,0008.05,0001.51
2022-01-09 07:51:00,,0832.1,4.99,0.00,22.1,21.4,00.0,31.2,23.8,13.2,0000.0,0001.97,0008.09,0001.49
2022-01-09 07:52:00,,0832.1,5.00,0.00,22.1,21.4,00.0,31.2,23.8,13.2,0000.0,0001.94,0007.55,0001.49
2022-01-09 07:53:00,,0832.1,5.01,0.00,22.1,21.4,00.0,31.2,23.8,13.2,0000.0,0001.91,0007.16,0001.51
2022-01-09 07:54:00,,0832.1,4.99,0.00,22.1,21.4,00.0,31.2,23.8,13.2,0000.0,0001.87,0006.57,0001.51
2022-01-09 07:55:00,,0832.2,5.01,0.00,22.2,22.0,00.0,31.2,24.0,13.2,0000.0,0001.87,0005.74,0001.52
2022-01-09 07:56:00,,0832.3,5.02,0.00,22.3,22.8,00.0,31.3,24.2,13.1,0000.0,0001.88,0005.11,0001.51
2022-01-09 07:57:00,,0832.1,4.99,0.00,22.4,23.0,00.0,31.3,24.4,13.0,0000.0,0001.94,0005.04,0001.52
2022-01-09 07:58:00,,0832.2,5.00,0.00,22.5,22.8,00.0,31.3,24.4,13.0,0000.0,0001.98,0005.83,0001.54
2022-01-09 07:59:00,,0832.1,5.01,0.00,22.5,22.6,00.0,31.3,24.4,13.0,0000.0,0001.96,0005.29,0001.54
